Location: Greenwich
(51.4790°N, 0.0090°E)
Time: 19:51:02
(UTC+01:00)

Tiros 1 - Pass Details

Date: 24 April 2024
Orbit: 624 x 657 km, 48.4° (Epoch: 22 May)

Event Time Altitude Azimuth Distance (km) Brightness Sun altitude
Exits shadow 04:25:29 10° 269° (W) 2,022 9.2 -11.5°
Reaches altitude 10° 04:25:32 10° 269° (W) 2,006 9.2 -11.5°
Maximum altitude 04:29:44 36° 204° (SSW) 997 7.7 -10.9°
Drops below altitude 10° 04:33:55 10° 138° (SE) 1,991 9.7 -10.4°
Sets 04:36:21 0° 129° (SE) 2,894 10.7 -10.1°
